Home   Weather   Waterloo   Past weeks

Flag for Canada Past Weather in Waterloo, Ontario, Canada — Yesterday and Last 2 Weeks

Now
50 °F

Partly sunny.


Feels Like: 45 °F
Forecast: N/A
Wind: 13 mph from Northwest

Location: Waterloo Well

Current Time: Apr 29, 2017 at 7:26:13 pm

Latest Report: Apr 29, 2017 at 6:00 pm


Visibility: 9 mi

Pressure: 30.19 "Hg

Humidity: 58%

Dew Point: 36 °F

Location of WaterlooLocation

Past Weather in Waterloo — Graph

°F

Waterloo Temperature Yesterday

Maximum temperature yesterday: 61 °F (at 2:00 pm)
Minimum temperature yesterday: 45 °F (at 6:00 am)
Average temperature yesterday: 54 °F

High & Low Weather Summary for the Past Weeks

 TemperatureHumidityPressure
High79 °F (Apr 27, 2:00 pm)100% (Apr 20, 3:53 pm)30.43 "Hg (Apr 20, 3:53 pm)
Low28 °F (Apr 18, 6:00 am)25% (Apr 14, 6:00 pm)29.49 "Hg (Apr 27, 4:00 pm)
Average49 °F76%29.97 "Hg
* Reported Apr 14 6:00 pm — Apr 29 6:00 pm, Waterloo, Weather by CustomWeather, © 2017

Note: Actual official high and low records may vary slightly from our data, if they occured in-between our weather recording intervals... More about our weather records

Advertising

Waterloo Weather History for the Previous 24 Hours

Scroll right to see more
 ConditionsComfort  
Time TempWeatherWind HumidityBarometerVisibility
6:00 pm
Sat, Apr 29
50 °FPartly sunny.13 mph58%30.19 "Hg9 mi
5:00 pm52 °FPartly sunny.10 mph58%30.18 "Hg9 mi
4:00 pm52 °FOvercast.13 mph58%30.19 "Hg9 mi
3:00 pm52 °FOvercast.13 mph54%30.19 "Hg9 mi
2:00 pm52 °FOvercast.15 mph54%30.18 "Hg9 mi
1:00 pm50 °FOvercast.12 mph54%30.14 "Hg9 mi
12:00 pm48 °FOvercast.16 mph62%30.14 "Hg9 mi
11:00 am46 °FOvercast.13 mph66%30.14 "Hg9 mi
10:00 am46 °FOvercast.12 mph66%30.13 "Hg9 mi
9:00 am45 °FOvercast.13 mph71%30.11 "Hg9 mi
8:00 am45 °FOvercast.8 mph76%30.08 "Hg9 mi
7:00 am45 °FPartly sunny.13 mph76%30.05 "Hg9 mi
6:00 am45 °FPassing clouds.13 mph81%30.01 "Hg9 mi
5:00 am48 °FClear.13 mph87%29.98 "Hg9 mi
4:00 am52 °FClear.8 mph77%29.99 "Hg9 mi
3:00 am52 °FClear.10 mph77%29.97 "Hg9 mi
2:00 am54 °FOvercast.10 mph72%29.96 "Hg9 mi
1:00 am54 °FOvercast.10 mph72%29.98 "Hg9 mi
12:00 am54 °FOvercast.10 mph72%29.98 "Hg9 mi
11:00 pm
Fri, Apr 28
55 °FOvercast.12 mph67%29.98 "Hg9 mi
10:00 pm55 °FPartly cloudy.8 mph63%29.96 "Hg9 mi
9:00 pm57 °FOvercast.8 mph59%29.97 "Hg9 mi
8:00 pm57 °FOvercast.10 mph55%29.97 "Hg9 mi
7:00 pm59 °FOvercast.15 mph48%29.99 "Hg9 mi
Weather by CustomWeather, © 2017

See weather overviewHow to use our weather pages